Time,TemperatureF,DewpointF,PressureIn,WindDirection,WindDirectionDegrees,WindSpeedMPH,WindSpeedGustMPH,Humidity,HourlyPrecipIn,Conditions,Clouds,dailyrainin,SolarRadiationWatts/m^2,SoftwareType,DateUTC
2013-03-19 00:02:00,51.0,21.0,-100.00,WNW,287,26.0,39.0,30,0.00,,,0.00,0.000000,,2013-03-19 07:02:00,
2013-03-19 00:12:00,51.0,21.0,-100.00,WNW,287,26.0,39.0,30,0.00,,,0.00,0.000000,,2013-03-19 07:12:00,
2013-03-19 00:21:00,51.0,21.0,-100.00,WNW,287,26.0,39.0,30,0.00,,,0.00,0.000000,,2013-03-19 07:21:00,
2013-03-19 00:32:00,52.0,19.0,-100.00,WNW,286,23.0,38.0,27,0.00,,,0.00,0.000000,,2013-03-19 07:32:00,
2013-03-19 00:52:00,52.0,19.0,-100.00,WNW,286,23.0,38.0,27,0.00,,,0.00,0.000000,,2013-03-19 07:52:00,
2013-03-19 01:02:00,52.0,19.0,-100.00,WNW,286,23.0,38.0,27,0.00,,,0.00,0.000000,,2013-03-19 08:02:00,
2013-03-19 01:12:00,52.0,19.0,-100.00,WNW,286,23.0,38.0,27,0.00,,,0.00,0.000000,,2013-03-19 08:12:00,
2013-03-19 01:22:00,52.0,19.0,-100.00,WNW,286,23.0,38.0,27,0.00,,,0.00,0.000000,,2013-03-19 08:22:00,
2013-03-19 01:32:00,56.0,20.0,-100.00,WNW,291,20.0,34.0,24,0.00,,,0.00,0.000000,,2013-03-19 08:32:00,
2013-03-19 01:52:00,56.0,20.0,-100.00,WNW,291,20.0,34.0,24,0.00,,,0.00,0.000000,,2013-03-19 08:52:00,
2013-03-19 02:02:00,56.0,20.0,-100.00,WNW,291,20.0,34.0,24,0.00,,,0.00,0.000000,,2013-03-19 09:02:00,
2013-03-19 02:12:00,56.0,20.0,-100.00,WNW,291,20.0,34.0,24,0.00,,,0.00,0.000000,,2013-03-19 09:12:00,
2013-03-19 02:22:00,56.0,20.0,-100.00,WNW,291,20.0,34.0,24,0.00,,,0.00,0.000000,,2013-03-19 09:22:00,
2013-03-19 02:32:00,50.0,19.0,-100.00,WNW,283,15.0,25.0,29,-99.99,,,0.00,0.000000,,2013-03-19 09:32:00,
2013-03-19 02:53:00,50.0,19.0,-100.00,WNW,283,15.0,25.0,29,-99.99,,,0.00,0.000000,,2013-03-19 09:53:00,
2013-03-19 03:03:00,50.0,19.0,-100.00,WNW,283,15.0,25.0,29,-99.99,,,0.00,0.000000,,2013-03-19 10:03:00,
2013-03-19 03:12:00,50.0,19.0,-100.00,WNW,283,15.0,25.0,29,-99.99,,,0.00,0.000000,,2013-03-19 10:12:00,
2013-03-19 03:22:00,50.0,19.0,-100.00,WNW,283,15.0,25.0,29,-99.99,,,0.00,0.000000,,2013-03-19 10:22:00,
2013-03-19 03:32:00,48.0,17.0,-100.00,West,281,17.0,32.0,29,0.00,,,0.00,0.000000,,2013-03-19 10:32:00,
2013-03-19 03:53:00,48.0,17.0,-100.00,West,281,17.0,32.0,29,0.00,,,0.00,0.000000,,2013-03-19 10:53:00,
2013-03-19 04:02:00,48.0,17.0,-100.00,West,281,17.0,32.0,29,0.00,,,0.00,0.000000,,2013-03-19 11:02:00,
2013-03-19 04:12:00,48.0,17.0,-100.00,West,281,17.0,32.0,29,0.00,,,0.00,0.000000,,2013-03-19 11:12:00,
2013-03-19 04:22:00,48.0,17.0,-100.00,West,281,17.0,32.0,29,0.00,,,0.00,0.000000,,2013-03-19 11:22:00,
2013-03-19 04:32:00,50.0,21.0,-100.00,NW,325,21.0,44.0,31,0.00,,,0.00,0.000000,,2013-03-19 11:32:00,
2013-03-19 04:52:00,50.0,21.0,-100.00,NW,325,21.0,44.0,31,0.00,,,0.00,0.000000,,2013-03-19 11:52:00,
2013-03-19 05:02:00,50.0,21.0,-100.00,NW,325,21.0,44.0,31,0.00,,,0.00,0.000000,,2013-03-19 12:02:00,
2013-03-19 05:12:00,50.0,21.0,-100.00,NW,325,21.0,44.0,31,0.00,,,0.00,0.000000,,2013-03-19 12:12:00,
2013-03-19 05:22:00,50.0,21.0,-100.00,NW,325,21.0,44.0,31,0.00,,,0.00,0.000000,,2013-03-19 12:22:00,
2013-03-19 05:32:00,49.0,19.0,-100.00,NNW,336,20.0,36.0,30,0.00,,,0.00,0.000000,,2013-03-19 12:32:00,
2013-03-19 05:52:00,49.0,19.0,-100.00,NNW,336,20.0,36.0,30,0.00,,,0.00,0.000000,,2013-03-19 12:52:00,
2013-03-19 06:02:00,49.0,19.0,-100.00,NNW,336,20.0,36.0,30,0.00,,,0.00,0.000000,,2013-03-19 13:02:00,
2013-03-19 06:12:00,49.0,19.0,-100.00,NNW,336,20.0,36.0,30,0.00,,,0.00,0.000000,,2013-03-19 13:12:00,
2013-03-19 06:22:00,49.0,19.0,-100.00,NNW,336,20.0,36.0,30,0.00,,,0.00,0.000000,,2013-03-19 13:22:00,
2013-03-19 06:32:00,52.0,21.0,-100.00,NNW,329,21.0,35.0,29,0.00,,,0.00,0.000000,,2013-03-19 13:32:00,
2013-03-19 06:52:00,52.0,21.0,-100.00,NNW,329,21.0,35.0,29,0.00,,,0.00,0.000000,,2013-03-19 13:52:00,
2013-03-19 07:02:00,52.0,21.0,-100.00,NNW,329,21.0,35.0,29,0.00,,,0.00,0.000000,,2013-03-19 14:02:00,
2013-03-19 07:12:00,52.0,21.0,-100.00,NNW,329,21.0,35.0,29,0.00,,,0.00,0.000000,,2013-03-19 14:12:00,
2013-03-19 07:22:00,52.0,21.0,-100.00,NNW,329,21.0,35.0,29,0.00,,,0.00,0.000000,,2013-03-19 14:22:00,
2013-03-19 07:52:00,55.0,21.0,-100.00,NW,315,17.0,34.0,26,0.00,,,0.00,14.000000,,2013-03-19 14:52:00,
2013-03-19 08:02:00,55.0,21.0,-100.00,NW,315,17.0,34.0,26,0.00,,,0.00,14.000000,,2013-03-19 15:02:00,
2013-03-19 08:12:00,55.0,21.0,-100.00,NW,315,17.0,34.0,26,0.00,,,0.00,14.000000,,2013-03-19 15:12:00,
2013-03-19 08:22:00,55.0,21.0,-100.00,NW,315,17.0,34.0,26,0.00,,,0.00,14.000000,,2013-03-19 15:22:00,
2013-03-19 08:32:00,57.0,21.0,-100.00,NNW,332,6.0,26.0,24,0.00,,,0.00,181.000000,,2013-03-19 15:32:00,
2013-03-19 08:53:00,57.0,21.0,-100.00,NNW,332,6.0,26.0,24,0.00,,,0.00,181.000000,,2013-03-19 15:53:00,
2013-03-19 09:32:00,59.0,23.0,-100.00,SSE,150,6.0,13.0,25,0.00,,,0.00,235.000000,,2013-03-19 16:32:00,
2013-03-19 09:54:00,59.0,23.0,-100.00,SSE,150,6.0,13.0,25,0.00,,,0.00,235.000000,,2013-03-19 16:54:00,
2013-03-19 10:02:00,59.0,23.0,-100.00,SSE,150,6.0,13.0,25,0.00,,,0.00,235.000000,,2013-03-19 17:02:00,
2013-03-19 10:23:00,59.0,23.0,-100.00,SSE,150,6.0,13.0,25,0.00,,,0.00,235.000000,,2013-03-19 17:23:00,
2013-03-19 10:32:00,60.0,22.0,-100.00,ESE,106,6.0,11.0,23,0.00,,,0.00,511.000000,,2013-03-19 17:32:00,
2013-03-19 10:53:00,60.0,22.0,-100.00,ESE,106,6.0,11.0,23,0.00,,,0.00,511.000000,,2013-03-19 17:53:00,
2013-03-19 11:02:00,60.0,22.0,-100.00,ESE,106,6.0,11.0,23,0.00,,,0.00,511.000000,,2013-03-19 18:02:00,
2013-03-19 11:13:00,60.0,22.0,-100.00,ESE,106,6.0,11.0,23,0.00,,,0.00,511.000000,,2013-03-19 18:13:00,
2013-03-19 11:23:00,60.0,22.0,-100.00,ESE,106,6.0,11.0,23,0.00,,,0.00,511.000000,,2013-03-19 18:23:00,
2013-03-19 11:32:00,61.0,23.0,-100.00,ENE,72,5.0,18.0,23,0.00,,,0.00,840.000000,,2013-03-19 18:32:00,
2013-03-19 11:53:00,61.0,23.0,-100.00,ENE,72,5.0,18.0,23,0.00,,,0.00,840.000000,,2013-03-19 18:53:00,
2013-03-19 12:02:00,61.0,23.0,-100.00,ENE,72,5.0,18.0,23,0.00,,,0.00,840.000000,,2013-03-19 19:02:00,
2013-03-19 12:12:00,61.0,23.0,-100.00,ENE,72,5.0,18.0,23,0.00,,,0.00,840.000000,,2013-03-19 19:12:00,
2013-03-19 12:22:00,61.0,23.0,-100.00,ENE,72,5.0,18.0,23,0.00,,,0.00,840.000000,,2013-03-19 19:22:00,
2013-03-19 12:53:00,65.0,20.0,-100.00,SE,133,5.0,15.0,18,0.00,,,0.00,969.000000,,2013-03-19 19:53:00,
2013-03-19 13:02:00,65.0,20.0,-100.00,SE,133,5.0,15.0,18,0.00,,,0.00,969.000000,,2013-03-19 20:02:00,
2013-03-19 13:12:00,65.0,20.0,-100.00,SE,133,5.0,15.0,18,0.00,,,0.00,969.000000,,2013-03-19 20:12:00,
2013-03-19 13:22:00,65.0,20.0,-100.00,SE,133,5.0,15.0,18,0.00,,,0.00,969.000000,,2013-03-19 20:22:00,
2013-03-19 13:32:00,65.0,19.0,-100.00,SSE,153,9.0,20.0,17,0.00,,,0.00,994.000000,,2013-03-19 20:32:00,
2013-03-19 13:53:00,65.0,19.0,-100.00,SSE,153,9.0,20.0,17,0.00,,,0.00,994.000000,,2013-03-19 20:53:00,
2013-03-19 14:02:00,65.0,19.0,-100.00,SSE,153,9.0,20.0,17,0.00,,,0.00,994.000000,,2013-03-19 21:02:00,
2013-03-19 14:11:00,65.0,19.0,-100.00,SSE,153,9.0,20.0,17,0.00,,,0.00,994.000000,,2013-03-19 21:11:00,
2013-03-19 14:22:00,65.0,19.0,-100.00,SSE,153,9.0,20.0,17,0.00,,,0.00,994.000000,,2013-03-19 21:22:00,
2013-03-19 14:32:00,66.0,19.0,-100.00,SE,137,7.0,15.0,16,0.00,,,0.00,961.000000,,2013-03-19 21:32:00,
2013-03-19 14:53:00,66.0,19.0,-100.00,SE,137,7.0,15.0,16,0.00,,,0.00,961.000000,,2013-03-19 21:53:00,
2013-03-19 15:03:00,66.0,19.0,-100.00,SE,137,7.0,15.0,16,0.00,,,0.00,961.000000,,2013-03-19 22:03:00,
2013-03-19 15:12:00,66.0,19.0,-100.00,SE,137,7.0,15.0,16,0.00,,,0.00,961.000000,,2013-03-19 22:12:00,
2013-03-19 15:23:00,66.0,19.0,-100.00,SE,137,7.0,15.0,16,0.00,,,0.00,961.000000,,2013-03-19 22:23:00,
2013-03-19 15:32:00,66.0,19.0,-100.00,SE,142,7.0,15.0,16,0.00,,,0.00,859.000000,,2013-03-19 22:32:00,
2013-03-19 15:53:00,66.0,19.0,-100.00,SE,142,7.0,15.0,16,0.00,,,0.00,859.000000,,2013-03-19 22:53:00,
2013-03-19 16:02:00,66.0,19.0,-100.00,SE,142,7.0,15.0,16,0.00,,,0.00,859.000000,,2013-03-19 23:02:00,
2013-03-19 16:12:00,66.0,19.0,-100.00,SE,142,7.0,15.0,16,0.00,,,0.00,859.000000,,2013-03-19 23:12:00,
2013-03-19 16:22:00,66.0,19.0,-100.00,SE,142,7.0,15.0,16,0.00,,,0.00,859.000000,,2013-03-19 23:22:00,
2013-03-19 16:32:00,64.0,26.0,-100.00,WNW,300,9.0,14.0,24,0.00,,,0.00,676.000000,,2013-03-19 23:32:00,
2013-03-19 16:52:00,64.0,26.0,-100.00,WNW,300,9.0,14.0,24,0.00,,,0.00,676.000000,,2013-03-19 23:52:00,
2013-03-19 17:02:00,64.0,26.0,-100.00,WNW,300,9.0,14.0,24,0.00,,,0.00,676.000000,,2013-03-20 00:02:00,
2013-03-19 17:12:00,64.0,26.0,-100.00,WNW,300,9.0,14.0,24,0.00,,,0.00,676.000000,,2013-03-20 00:12:00,
2013-03-19 17:22:00,64.0,26.0,-100.00,WNW,300,9.0,14.0,24,0.00,,,0.00,676.000000,,2013-03-20 00:22:00,
2013-03-19 17:32:00,59.0,27.0,-100.00,NNW,328,9.0,16.0,29,0.00,,,0.00,289.000000,,2013-03-20 00:32:00,
2013-03-19 17:52:00,59.0,27.0,-100.00,NNW,328,9.0,16.0,29,0.00,,,0.00,289.000000,,2013-03-20 00:52:00,
2013-03-19 18:02:00,59.0,27.0,-100.00,NNW,328,9.0,16.0,29,0.00,,,0.00,289.000000,,2013-03-20 01:02:00,
2013-03-19 18:12:00,59.0,27.0,-100.00,NNW,328,9.0,16.0,29,0.00,,,0.00,289.000000,,2013-03-20 01:12:00,
2013-03-19 18:22:00,59.0,27.0,-100.00,NNW,328,9.0,16.0,29,0.00,,,0.00,289.000000,,2013-03-20 01:22:00,
2013-03-19 18:32:00,57.0,27.0,-100.00,WNW,290,13.0,22.0,31,0.00,,,0.00,34.000000,,2013-03-20 01:32:00,
2013-03-19 18:52:00,57.0,27.0,-100.00,WNW,290,13.0,22.0,31,0.00,,,0.00,34.000000,,2013-03-20 01:52:00,
2013-03-19 19:02:00,57.0,27.0,-100.00,WNW,290,13.0,22.0,31,0.00,,,0.00,34.000000,,2013-03-20 02:02:00,
2013-03-19 19:11:00,57.0,27.0,-100.00,WNW,290,13.0,22.0,31,0.00,,,0.00,34.000000,,2013-03-20 02:11:00,
2013-03-19 19:21:00,57.0,27.0,-100.00,WNW,290,13.0,22.0,31,0.00,,,0.00,34.000000,,2013-03-20 02:21:00,
2013-03-19 19:32:00,53.0,27.0,-100.00,WNW,286,20.0,30.0,36,0.00,,,0.00,7.000000,,2013-03-20 02:32:00,
2013-03-19 19:53:00,53.0,27.0,-100.00,WNW,286,20.0,30.0,36,0.00,,,0.00,7.000000,,2013-03-20 02:53:00,
2013-03-19 20:02:00,53.0,27.0,-100.00,WNW,286,20.0,30.0,36,0.00,,,0.00,7.000000,,2013-03-20 03:02:00,
2013-03-19 20:12:00,53.0,27.0,-100.00,WNW,286,20.0,30.0,36,0.00,,,0.00,7.000000,,2013-03-20 03:12:00,
2013-03-19 20:22:00,53.0,27.0,-100.00,WNW,286,20.0,30.0,36,0.00,,,0.00,7.000000,,2013-03-20 03:22:00,
2013-03-19 20:32:00,52.0,26.0,-100.00,WNW,287,23.0,32.0,36,0.00,,,0.00,0.000000,,2013-03-20 03:32:00,
2013-03-19 20:53:00,52.0,26.0,-100.00,WNW,287,23.0,32.0,36,0.00,,,0.00,0.000000,,2013-03-20 03:53:00,
2013-03-19 21:02:00,52.0,26.0,-100.00,WNW,287,23.0,32.0,36,0.00,,,0.00,0.000000,,2013-03-20 04:02:00,
2013-03-19 21:12:00,52.0,26.0,-100.00,WNW,287,23.0,32.0,36,0.00,,,0.00,0.000000,,2013-03-20 04:12:00,
2013-03-19 21:22:00,52.0,26.0,-100.00,WNW,287,23.0,32.0,36,0.00,,,0.00,0.000000,,2013-03-20 04:22:00,
2013-03-19 21:32:00,52.0,24.0,-100.00,WNW,286,21.0,34.0,33,0.00,,,0.00,0.000000,,2013-03-20 04:32:00,
2013-03-19 21:52:00,52.0,24.0,-100.00,WNW,286,21.0,34.0,33,0.00,,,0.00,0.000000,,2013-03-20 04:52:00,
2013-03-19 22:02:00,52.0,24.0,-100.00,WNW,286,21.0,34.0,33,0.00,,,0.00,0.000000,,2013-03-20 05:02:00,
2013-03-19 22:12:00,52.0,24.0,-100.00,WNW,286,21.0,34.0,33,0.00,,,0.00,0.000000,,2013-03-20 05:12:00,
2013-03-19 22:22:00,52.0,24.0,-100.00,WNW,286,21.0,34.0,33,0.00,,,0.00,0.000000,,2013-03-20 05:22:00,
2013-03-19 22:32:00,52.0,25.0,-100.00,WNW,295,27.0,35.0,34,0.00,,,0.00,0.000000,,2013-03-20 05:32:00,
2013-03-19 22:53:00,52.0,25.0,-100.00,WNW,295,27.0,35.0,34,0.00,,,0.00,0.000000,,2013-03-20 05:53:00,
2013-03-19 23:02:00,52.0,25.0,-100.00,WNW,295,27.0,35.0,34,0.00,,,0.00,0.000000,,2013-03-20 06:02:00,
2013-03-19 23:12:00,52.0,25.0,-100.00,WNW,295,27.0,35.0,34,0.00,,,0.00,0.000000,,2013-03-20 06:12:00,
2013-03-19 23:22:00,52.0,25.0,-100.00,WNW,295,27.0,35.0,34,0.00,,,0.00,0.000000,,2013-03-20 06:22:00,
2013-03-19 23:53:00,51.0,27.0,-100.00,WNW,288,29.0,40.0,39,0.00,,,0.00,0.000000,,2013-03-20 06:53:00,